Boone, NC

1:18 AM EST on November 20, 2019 (GMT -0500)
Boone

Weather History for KTNB - September, 2019

Change the Weather History Date:

Wednesday, September 4, 2019

  Actual Average (KGEV) Record (KGEV)
Temperature  
Mean Temperature 70 °F -  
Max Temperature 85 °F 75 °F 84 °F (1975)
Min Temperature 56 °F 55 °F 37 °F (1967)
Cooling Degree Days 6    
Growing Degree Days 20 (Base 50)    
Moisture  
Dew Point 59 °F    
Average Humidity 73    
Maximum Humidity 100    
Minimum Humidity 33    
Precipitation  
Precipitation 0.00 in - - ()
Sea Level Pressure  
Sea Level Pressure 30.16 in    
Wind  
Wind Speed 1 mph (West)    
Max Wind Speed 9 mph    
Max Gust Speed 17 mph    
Visibility 9 miles    
Events      
Averages and records for this station are not official NWS values.
T = Trace of Precipitation, MM = Missing Value Source: NWS Daily Summary

Daily Weather History Graph

Daily Weather History Graph

Search for Another Location

Airport or City:

Astronomy

Sep. 04, 2019 Rise Set
Actual Time 7:00 AM EDT 7:50 PM EDT
Civil Twilight 6:34 AM EDT 8:16 PM EDT
Nautical Twilight 6:03 AM EDT 8:47 PM EDT
Astronomical Twilight 5:31 AM EDT 9:19 PM EDT
Moon 12:49 PM EDT (9/4) 11:35 PM EDT (9/4)
Length of Visible Light 13h 42m
Length of Day
12h 50m
Waxing Crescent, 34% of the Moon is Illuminated
Sep 4
Waxing Crescent
Sep 5
First Quarter
Sep 14
Full
Sep 21
Last Quarter
Sep 28
New

Hourly Weather History & Observations

Time (EDT) Temp. Heat Index Dew Point Humidity Pressure Visibility Wind Dir Wind Speed Gust Speed Precip Events Conditions
12:15 AM 62.2 °F - 62.2 °F 100% 30.18 in 7.0 mi Calm Calm - N/A   Clear
12:35 AM 61.9 °F - 61.9 °F 100% 30.18 in 7.0 mi Calm Calm - N/A   Clear
12:55 AM 62.6 °F - 62.6 °F 100% 30.18 in 10.0 mi Calm Calm - N/A   Clear
1:15 AM 61.7 °F - 61.7 °F 100% 30.18 in 5.0 mi Calm Calm - N/A   Clear
1:35 AM 61.0 °F - 61.0 °F 100% 30.17 in 5.0 mi Calm Calm - N/A   Clear
1:55 AM 59.2 °F - 59.2 °F 100% 30.14 in 2.5 mi Calm Calm - N/A   Clear
2:15 AM 61.5 °F - 61.5 °F 100% 30.16 in 10.0 mi Calm Calm - N/A   Clear
2:35 AM 61.7 °F - 61.7 °F 100% 30.15 in 10.0 mi Calm Calm - N/A   Clear
2:55 AM 61.7 °F - 61.7 °F 100% 30.14 in 10.0 mi Calm Calm - N/A   Clear
3:15 AM 60.8 °F - 60.8 °F 100% 30.15 in 7.0 mi Calm Calm - N/A   Clear
3:35 AM 61.7 °F - 61.7 °F 100% 30.15 in 10.0 mi Calm Calm - N/A   Clear
3:55 AM 59.9 °F - 59.9 °F 100% 30.16 in 7.0 mi Calm Calm - N/A   Clear
4:15 AM 60.1 °F - 60.1 °F 100% 30.16 in 10.0 mi Calm Calm - N/A   Clear
4:35 AM 59.2 °F - 59.2 °F 100% 30.16 in 4.0 mi Calm Calm - N/A   Clear
4:55 AM 58.3 °F - 58.3 °F 100% 30.16 in 3.0 mi Calm Calm - N/A   Clear
5:15 AM 59.4 °F - 59.4 °F 100% 30.17 in 10.0 mi Calm Calm - N/A   Clear
5:35 AM 57.7 °F - 57.7 °F 100% 30.18 in 4.0 mi Calm Calm - N/A   Clear
5:55 AM 58.1 °F - 58.1 °F 100% 30.19 in 5.0 mi Calm Calm - N/A   Clear
6:15 AM 57.4 °F - 57.4 °F 100% 30.19 in 4.0 mi Calm Calm - N/A   Clear
6:35 AM 58.1 °F - 58.1 °F 100% 30.19 in 7.0 mi Calm Calm - N/A   Clear
6:55 AM 57.4 °F - 57.4 °F 100% 30.20 in 5.0 mi Calm Calm - N/A   Clear
7:15 AM 56.7 °F - 56.7 °F 100% 30.20 in 2.0 mi Calm Calm - N/A   Clear
7:35 AM 57.4 °F - 57.4 °F 100% 30.20 in 5.0 mi Calm Calm - N/A   Clear
7:55 AM 57.4 °F - 57.4 °F 100% 30.20 in 4.0 mi Calm Calm - N/A   Clear
8:15 AM 58.8 °F - 58.8 °F 100% 30.20 in 7.0 mi Calm Calm - N/A   Clear
8:35 AM 60.8 °F - 60.8 °F 100% 30.20 in 10.0 mi Calm Calm - N/A   Clear
8:55 AM 66.0 °F - 63.5 °F 92% 30.20 in 10.0 mi Calm Calm - N/A   Clear
9:15 AM 69.1 °F - 61.9 °F 78% 30.20 in 10.0 mi West 5.8 mph - N/A   Clear
9:35 AM 70.7 °F - 61.0 °F 71% 30.20 in 10.0 mi WNW 6.9 mph - N/A   Clear
9:55 AM 72.1 °F - 60.8 °F 67% 30.20 in 10.0 mi WNW 4.6 mph - N/A   Clear
10:15 AM 73.6 °F - 60.1 °F 63% 30.20 in 10.0 mi WNW 9.2 mph - N/A   Clear
10:35 AM 74.5 °F - 59.9 °F 60% 30.19 in 10.0 mi West 5.8 mph - N/A   Clear
10:55 AM 75.2 °F - 59.7 °F 58% 30.20 in 10.0 mi Calm Calm - N/A   Clear
11:15 AM 76.8 °F - 60.3 °F 56% 30.20 in 10.0 mi SW 3.5 mph - N/A   Clear
11:35 AM 78.1 °F - 59.9 °F 53% 30.19 in 10.0 mi Calm Calm - N/A   Clear
11:55 AM 78.3 °F - 59.4 °F 52% 30.19 in 10.0 mi Calm Calm - N/A   Clear
12:15 PM 79.2 °F - 59.4 °F 51% 30.17 in 10.0 mi Calm Calm - N/A   Clear
12:35 PM 80.6 °F 81.1 °F 59.2 °F 48% 30.17 in 10.0 mi West 6.9 mph - N/A   Clear
12:55 PM 81.3 °F 81.6 °F 59.0 °F 46% 30.17 in 10.0 mi West 3.5 mph - N/A   Clear
1:15 PM 82.0 °F 82.0 °F 57.9 °F 44% 30.17 in 10.0 mi West 6.9 mph - N/A   Clear
1:35 PM 82.9 °F 82.7 °F 58.1 °F 43% 30.17 in 10.0 mi WNW 8.1 mph - N/A   Clear
1:55 PM 83.1 °F 82.6 °F 56.8 °F 41% 30.16 in 10.0 mi NW 5.8 mph - N/A   Clear
2:35 PM 83.1 °F 82.2 °F 55.2 °F 38% 30.15 in 10.0 mi WNW 3.5 mph - N/A   Clear
2:55 PM 83.3 °F 82.5 °F 56.1 °F 39% 30.14 in 10.0 mi Calm Calm - N/A   Clear
3:15 PM 83.7 °F 83.0 °F 56.8 °F 40% 30.14 in 10.0 mi WNW 6.9 mph - N/A   Clear
3:35 PM 84.6 °F 83.5 °F 56.7 °F 38% 30.14 in 10.0 mi Calm Calm - N/A   Clear
3:55 PM 84.4 °F 83.5 °F 56.7 °F 39% 30.13 in 10.0 mi Calm Calm - N/A   Clear
4:15 PM 85.3 °F 84.3 °F 56.8 °F 38% 30.12 in 10.0 mi Calm Calm - N/A   Clear
4:35 PM 84.7 °F 83.6 °F 55.4 °F 37% 30.12 in 10.0 mi Calm Calm - N/A   Clear
4:55 PM 85.3 °F 83.5 °F 53.1 °F 33% 30.11 in 10.0 mi Calm Calm - N/A   Clear
5:15 PM 84.4 °F - 52.7 °F 33% 30.11 in 10.0 mi Calm Calm - N/A   Clear
5:35 PM 84.2 °F - 52.2 °F 33% 30.12 in 10.0 mi WNW 4.6 mph 17.3 mph N/A   Clear
5:55 PM 83.3 °F 82.2 °F 54.7 °F 37% 30.12 in 10.0 mi Calm Calm - N/A   Clear
6:15 PM 82.8 °F 82.1 °F 56.1 °F 40% 30.12 in 10.0 mi Calm Calm - N/A   Clear
6:35 PM 82.0 °F 81.8 °F 57.2 °F 43% 30.12 in 10.0 mi Calm Calm - N/A   Clear
6:55 PM 81.3 °F 81.2 °F 56.7 °F 43% 30.12 in 10.0 mi Calm Calm - N/A   Clear
7:15 PM 80.1 °F 80.3 °F 56.5 °F 44% 30.12 in 10.0 mi Calm Calm - N/A   Clear
7:35 PM 78.4 °F - 56.7 °F 47% 30.13 in 10.0 mi Calm Calm - N/A   Clear
7:55 PM 74.7 °F - 60.1 °F 60% 30.12 in 10.0 mi Calm Calm - N/A   Clear
8:15 PM 73.6 °F - 58.8 °F 60% 30.13 in 10.0 mi Calm Calm - N/A   Clear
8:35 PM 69.8 °F - 60.1 °F 71% 30.13 in 10.0 mi Calm Calm - N/A   Clear
8:55 PM 70.7 °F - 59.7 °F 68% 30.14 in 10.0 mi Calm Calm - N/A   Clear
9:15 PM 67.6 °F - 60.1 °F 77% 30.14 in 10.0 mi Calm Calm - N/A   Clear
9:55 PM 66.2 °F - 59.2 °F 78% 30.13 in 10.0 mi Calm Calm - N/A   Clear
10:15 PM 65.3 °F - 59.9 °F 83% 30.14 in 10.0 mi Calm Calm - N/A   Clear
10:35 PM 64.2 °F - 60.1 °F 86% 30.13 in 10.0 mi Calm Calm - N/A   Clear
10:55 PM 63.5 °F - 62.1 °F 95% 30.12 in 10.0 mi Calm Calm - N/A   Clear
11:15 PM 63.0 °F - 62.6 °F 99% 30.12 in 10.0 mi Calm Calm - N/A   Clear
11:35 PM 63.5 °F - 61.5 °F 93% 30.12 in 10.0 mi Calm Calm - N/A   Clear
11:55 PM 62.6 °F - 62.2 °F 99% 30.11 in 10.0 mi Calm Calm - N/A   Clear